Location: Unspecified
(52.4292°N, 19.3359°E)
Time: 08:55:35
(UTC+02:00)

Tiros 1 - Pass Details

Date: 26 May 2024
Orbit: 624 x 657 km, 48.4° (Epoch: 22 June)

Event Time Altitude Azimuth Distance (km) Brightness Sun altitude
Rises 10:23:35 0° 199° (SSW) 2,954 10.7 49.3°
Reaches altitude 10° 10:26:47 10° 176° (S) 2,053 10.3 49.7°
Maximum altitude 10:29:28 15° 141° (SE) 1,739 10.4 50.0°
Drops below altitude 10° 10:32:10 10° 107° (ESE) 2,065 10.5 50.3°
Sets 10:35:24 0° 84° (E) 2,983 10.9 50.7°
